• en Belgique
  • Liste des pays
  • À 7 jours
  • Température de l'eau
  • Carte satellitaire
  • Carte météo
  • Widgets météo
  • user-avatar
    Se connecter

    Météo par heure à Kalgoorlie

    Ce jour, 24 Janvier, Mercredi

    Heure Température Précipitation Vent Pression Humidité
    00:00 +29°C° 0,5 mm 8 m/s 724 mmHg 62%
    01:00 +28°C° 0,5 mm 8 m/s 724 mmHg 66%
    02:00 +26°C° 0 mm 7 m/s 724 mmHg 67%
    03:00 +26°C° 0 mm 6 m/s 724 mmHg 68%
    04:00 +26°C° 0 mm 6 m/s 724 mmHg 68%
    05:00 +26°C° 0 mm 5 m/s 723 mmHg 68%
    06:00 +26°C° 0 mm 5 m/s 724 mmHg 68%
    07:00 +26°C° 0 mm 5 m/s 724 mmHg 67%
    08:00 +25°C° 0 mm 5 m/s 724 mmHg 73%
    09:00 +26°C° 0 mm 5 m/s 724 mmHg 68%
    10:00 +28°C° 0 mm 4 m/s 724 mmHg 62%
    11:00 +29°C° 0 mm 3 m/s 723 mmHg 57%
    12:00 +31°C° 0 mm 3 m/s 723 mmHg 52%
    13:00 +33°C° 0 mm 3 m/s 722 mmHg 46%
    14:00 +35°C° 0 mm 2 m/s 722 mmHg 41%
    15:00 +35°C° 0 mm 3 m/s 722 mmHg 40%
    16:00 +36°C° 0 mm 3 m/s 721 mmHg 38%
    17:00 +36°C° 0 mm 4 m/s 721 mmHg 37%
    18:00 +35°C° 0,5 mm 4 m/s 721 mmHg 39%
    19:00 +35°C° 0,5 mm 5 m/s 721 mmHg 42%
    20:00 +34°C° 0,5 mm 5 m/s 721 mmHg 44%
    21:00 +33°C° 0,4 mm 6 m/s 721 mmHg 49%
    22:00 +30°C° 0,4 mm 7 m/s 722 mmHg 54%
    23:00 +29°C° 0,4 mm 8 m/s 722 mmHg 59%

    Demain, 25 Janvier, Jeudi

    Heure Température Précipitation Vent Pression Humidité
    00:00 +28°C° 0,7 mm 8 m/s 722 mmHg 64%
    01:00 +27°C° 0,7 mm 8 m/s 721 mmHg 69%
    02:00 +26°C° 0,7 mm 7 m/s 721 mmHg 74%
    03:00 +24°C° 2,3 mm 7 m/s 721 mmHg 77%
    04:00 +23°C° 2,3 mm 6 m/s 722 mmHg 80%
    05:00 +23°C° 2,3 mm 6 m/s 722 mmHg 83%
    06:00 +23°C° 1,1 mm 5 m/s 722 mmHg 81%
    07:00 +25°C° 1,1 mm 5 m/s 722 mmHg 79%
    08:00 +25°C° 1,1 mm 5 m/s 722 mmHg 76%
    09:00 +27°C° 0,1 mm 5 m/s 722 mmHg 68%
    10:00 +29°C° 0,1 mm 5 m/s 722 mmHg 59%
    11:00 +33°C° 0,1 mm 5 m/s 722 mmHg 50%
    12:00 +34°C° 0 mm 4 m/s 721 mmHg 46%
    13:00 +35°C° 0 mm 4 m/s 721 mmHg 42%
    14:00 +36°C° 0 mm 3 m/s 720 mmHg 38%
    15:00 +37°C° 0 mm 3 m/s 720 mmHg 37%
    16:00 +37°C° 0 mm 3 m/s 720 mmHg 36%
    17:00 +37°C° 0 mm 4 m/s 720 mmHg 36%
    18:00 +36°C° 0,1 mm 4 m/s 720 mmHg 39%
    19:00 +35°C° 0,1 mm 5 m/s 721 mmHg 42%
    20:00 +34°C° 0,1 mm 6 m/s 721 mmHg 45%
    21:00 +33°C° 0,6 mm 7 m/s 721 mmHg 50%
    22:00 +32°C° 0,6 mm 7 m/s 722 mmHg 54%
    23:00 +29°C° 0,6 mm 8 m/s 722 mmHg 59%

    Après-demain, 26 Janvier, Vendredi

    Heure Température Précipitation Vent Pression Humidité
    00:00 +28°C° 1,3 mm 7 m/s 722 mmHg 65%
    01:00 +27°C° 1,3 mm 7 m/s 722 mmHg 71%
    02:00 +24°C° 1,3 mm 7 m/s 722 mmHg 77%
    03:00 +24°C° 0,9 mm 6 m/s 722 mmHg 77%
    04:00 +24°C° 0,9 mm 6 m/s 722 mmHg 77%
    05:00 +25°C° 0,9 mm 5 m/s 722 mmHg 78%
    06:00 +24°C° 0 mm 6 m/s 722 mmHg 74%
    07:00 +26°C° 0 mm 6 m/s 722 mmHg 70%
    08:00 +27°C° 0 mm 6 m/s 723 mmHg 67%
    09:00 +29°C° 0 mm 6 m/s 722 mmHg 59%
    10:00 +32°C° 0 mm 6 m/s 722 mmHg 51%
    11:00 +34°C° 0 mm 6 m/s 722 mmHg 43%
    12:00 +35°C° 0 mm 6 m/s 721 mmHg 40%
    13:00 +37°C° 0 mm 5 m/s 721 mmHg 37%
    14:00 +39°C° 0 mm 5 m/s 720 mmHg 33%
    15:00 +39°C° 0 mm 5 m/s 720 mmHg 33%
    16:00 +40°C° 0 mm 5 m/s 719 mmHg 32%
    17:00 +40°C° 0 mm 4 m/s 719 mmHg 31%
    18:00 +39°C° 0 mm 5 m/s 719 mmHg 34%
    19:00 +37°C° 0 mm 5 m/s 720 mmHg 37%
    20:00 +36°C° 0 mm 6 m/s 720 mmHg 39%
    21:00 +34°C° 0,2 mm 7 m/s 720 mmHg 44%
    22:00 +33°C° 0,2 mm 7 m/s 720 mmHg 48%
    23:00 +32°C° 0,2 mm 8 m/s 721 mmHg 53%

    27 Janvier, Samedi

    Heure Température Précipitation Vent Pression Humidité
    00:00 +30°C° 0,2 mm 7 m/s 720 mmHg 57%
    01:00 +29°C° 0,2 mm 7 m/s 720 mmHg 62%
    02:00 +28°C° 0,2 mm 7 m/s 720 mmHg 67%
    03:00 +27°C° 0,2 mm 6 m/s 720 mmHg 68%
    04:00 +27°C° 0,2 mm 6 m/s 720 mmHg 70%
    05:00 +26°C° 0,2 mm 6 m/s 720 mmHg 72%
    06:00 +28°C° 0 mm 6 m/s 720 mmHg 68%
    07:00 +29°C° 0 mm 6 m/s 720 mmHg 63%
    08:00 +30°C° 0 mm 5 m/s 720 mmHg 58%
    09:00 +34°C° 0 mm 5 m/s 720 mmHg 49%
    10:00 +37°C° 0 mm 5 m/s 720 mmHg 40%
    11:00 +41°C° 0 mm 5 m/s 720 mmHg 31%
    12:00 +42°C° 0 mm 5 m/s 719 mmHg 27%
    13:00 +43°C° 0 mm 5 m/s 718 mmHg 23%
    14:00 +44°C° 0 mm 4 m/s 718 mmHg 19%
    15:00 +45°C° 0 mm 5 m/s 718 mmHg 20%
    16:00 +43°C° 0 mm 5 m/s 717 mmHg 21%
    17:00 +42°C° 0 mm 5 m/s 717 mmHg 22%
    18:00 +39°C° 0,4 mm 6 m/s 718 mmHg 32%
    19:00 +35°C° 0,4 mm 7 m/s 719 mmHg 42%
    20:00 +32°C° 0,4 mm 8 m/s 719 mmHg 52%
    21:00 +29°C° 0,6 mm 9 m/s 720 mmHg 59%
    22:00 +28°C° 0,6 mm 10 m/s 721 mmHg 66%
    23:00 +26°C° 0,6 mm 11 m/s 722 mmHg 73%

    28 Janvier, Dimanche

    Heure Température Précipitation Vent Pression Humidité
    00:00 +24°C° 0 mm 10 m/s 722 mmHg 74%
    01:00 +24°C° 0 mm 10 m/s 722 mmHg 74%
    02:00 +23°C° 0 mm 9 m/s 722 mmHg 75%
    03:00 +22°C° 0 mm 9 m/s 723 mmHg 74%
    04:00 +22°C° 0 mm 9 m/s 723 mmHg 73%
    05:00 +21°C° 0 mm 9 m/s 723 mmHg 73%
    06:00 +22°C° 0 mm 9 m/s 724 mmHg 71%
    07:00 +22°C° 0 mm 10 m/s 725 mmHg 69%
    08:00 +22°C° 0 mm 10 m/s 726 mmHg 67%
    09:00 +23°C° 0 mm 10 m/s 726 mmHg 63%
    10:00 +26°C° 0 mm 10 m/s 726 mmHg 59%
    11:00 +27°C° 0 mm 9 m/s 726 mmHg 55%
    12:00 +28°C° 0 mm 9 m/s 726 mmHg 52%
    13:00 +29°C° 0 mm 10 m/s 725 mmHg 49%
    14:00 +31°C° 0 mm 10 m/s 725 mmHg 46%
    15:00 +29°C° 0 mm 10 m/s 725 mmHg 48%
    16:00 +28°C° 0 mm 10 m/s 726 mmHg 49%
    17:00 +27°C° 0 mm 11 m/s 726 mmHg 50%
    18:00 +24°C° 0 mm 11 m/s 726 mmHg 53%
    19:00 +23°C° 0 mm 11 m/s 727 mmHg 57%
    20:00 +21°C° 0 mm 11 m/s 727 mmHg 60%
    21:00 +21°C° 0 mm 11 m/s 728 mmHg 62%
    22:00 +19°C° 0 mm 10 m/s 729 mmHg 63%
    23:00 +18°C° 0 mm 10 m/s 729 mmHg 65%

    29 Janvier, Lundi

    Heure Température Précipitation Vent Pression Humidité
    00:00 +17°C° 0 mm 9 m/s 729 mmHg 66%
    01:00 +16°C° 0 mm 9 m/s 729 mmHg 67%
    02:00 +16°C° 0 mm 9 m/s 729 mmHg 68%
    03:00 +15°C° 0 mm 9 m/s 729 mmHg 68%
    04:00 +15°C° 0 mm 9 m/s 729 mmHg 68%
    05:00 +13°C° 0 mm 9 m/s 730 mmHg 68%
    06:00 +15°C° 0 mm 9 m/s 730 mmHg 65%
    07:00 +16°C° 0 mm 9 m/s 730 mmHg 63%
    08:00 +17°C° 0 mm 10 m/s 731 mmHg 60%
    09:00 +18°C° 0 mm 10 m/s 730 mmHg 55%
    10:00 +21°C° 0 mm 10 m/s 730 mmHg 50%
    11:00 +23°C° 0 mm 10 m/s 730 mmHg 45%
    12:00 +24°C° 0 mm 10 m/s 730 mmHg 43%
    13:00 +26°C° 0 mm 10 m/s 729 mmHg 41%
    14:00 +27°C° 0 mm 10 m/s 729 mmHg 39%
    15:00 +26°C° 0 mm 10 m/s 729 mmHg 40%
    16:00 +26°C° 0 mm 10 m/s 729 mmHg 41%
    17:00 +24°C° 0 mm 11 m/s 729 mmHg 43%
    18:00 +23°C° 0 mm 11 m/s 729 mmHg 47%
    19:00 +21°C° 0 mm 11 m/s 730 mmHg 52%
    20:00 +18°C° 0 mm 10 m/s 730 mmHg 56%
    21:00 +17°C° 0 mm 10 m/s 730 mmHg 58%
    22:00 +16°C° 0 mm 10 m/s 730 mmHg 61%
    23:00 +16°C° 0 mm 9 m/s 730 mmHg 63%
    Voir plus